Miscellaneous Local Product
Issued by NWS Hastings, NE

Home | Current Version | Previous Version | Text Only | Print | Product List | Glossary Off
Versions: 1 2 3 4 5 6 7 8 9 10 11 12 13 14 15 16 17 18 19 20 21 22 23 24 25 26 27 28 29 30 31 32 33 34 35 36 37 38 39 40 41 42 43 44 45 46 47 48 49 50

000
AXUS43 KGID 241502
MISGRI

GID CWA HOURLY WEATHER ROUNDUP
NATIONAL WEATHER SERVICE HASTINGS NE
1000 AM CDT SAT JUN 24 2017

NOTE: "FAIR" INDICATES FEW OR NO CLOUDS BELOW 12,000 FEET WITH NO
SIGNIFICANT WEATHER AND/OR OBSTRUCTIONS TO VISIBILITY.

...SOUTH CENTRAL NEBRASKA...

CITY           SKY/WX    TMP DP  RH WIND       PRES   REMARKS
GRAND ISLAND   MOSUNNY   67  43  41 W7        30.25R
HASTINGS       SUNNY     68  41  37 SW7       30.26S
KEARNEY        MOSUNNY   68  39  34 SW5       30.27S
ORD            SUNNY     68  38  33 W12       30.22F
YORK           SUNNY     66  39  37 NW7       30.24R
AURORA         SUNNY     68  45  43 SW6       30.24S
LEXINGTON      CLOUDY    64  47  54 W5        30.28R
HOLDREGE       CLOUDY    65  39  37 S7        30.28R
HEBRON         SUNNY     71  33  24 CALM      30.25R

...NEBRASKA PANHANDLE...

CITY           SKY/WX    TMP DP  RH WIND       PRES   REMARKS
CHADRON        SUNNY     66  34  30 W9        30.29S
ALLIANCE       SUNNY     65  34  31 MISG      30.30R
SCOTTSBLUFF    CLOUDY    62  37  39 CALM      30.31S
SIDNEY         CLOUDY    64  36  35 S9        30.32S

...WESTERN AND NORTH CENTRAL NEBRASKA...

CITY           SKY/WX    TMP DP  RH WIND       PRES   REMARKS
VALENTINE      SUNNY     70  29  21 NW15G21   30.24S
AINSWORTH      SUNNY     67  35  31 W17       30.24S
ONEILL         SUNNY     68  40  36 W14G20    30.21S
BROKEN BOW     CLOUDY    65  43  44 W8        30.26R
IMPERIAL       CLOUDY    61  42  49 SE5       30.31S
NORTH PLATTE   PTSUNNY   64  44  48 SW6       30.29S
MCCOOK         CLOUDY    61  43  51 CALM      30.30R

...EASTERN NEBRASKA...

CITY           SKY/WX    TMP DP  RH WIND       PRES   REMARKS
NORFOLK        SUNNY     69  38  32 W15       30.18S
SO SIOUX CITY  SUNNY     68  44  42 VRB7      30.16S
TEKAMAH        SUNNY     70  43  37 W13       30.16F
COLUMBUS       SUNNY     68  44  42 SW9       30.21S
ALBION         SUNNY     69  37  30 W10       30.21F
OMAHA EPPLEY   SUNNY     69  44  40 W8        30.18S
OFFUTT AFB     SUNNY     67  45  44 NW8       30.18S
MILLARD        SUNNY     70  46  42 W8        30.19R
LINCOLN        SUNNY     70  46  42 W7        30.22R
NEBRASKA CITY  SUNNY     65  52  62 SW7       30.21R
BEATRICE       SUNNY     69  48  47 SW6       30.24R
FALLS CITY     SUNNY     69  45  41 W5        30.22R

...NORTHERN KANSAS...

CITY           SKY/WX    TMP DP  RH WIND       PRES   REMARKS
GOODLAND       CLOUDY    63  51  65 SE12      30.30R
HILL CITY      CLOUDY    66  48  52 SE6       30.30R
NORTON         SUNNY     70  34  26 SE7       30.29R
PHILLIPSBURG   SUNNY     70  39  32 S5        30.29R
SMITH CENTER     N/A     70  36  28 E5        30.27R
HAYS           PTSUNNY   69  50  50 SE12G17   30.29R
RUSSELL        MOSUNNY   70  46  42 E7        30.27R
CONCORDIA      SUNNY     72  38  29 VRB6      30.26R
SALINA         SUNNY     73  45  36 E10       30.27R
TOPEKA         SUNNY     71  50  47 CALM      30.25R



USA.gov is the U.S. government's official web portal to all federal, state and local government web resources and services.